Regional Weather Roundup
Issued by NWS

Home | Current Version | Previous Version | Graphics & Text | Print | Product List | Glossary On
Versions: 1 2 3 4 5 6 7 8 9 10 11 12 13 14 15 16 17 18 19 20 21 22 23 24 25 26 27 28 29 30 31 32 33 34 35 36 37 38 39 40 41 42 43 44 45 46 47 48 49 50
000
ASUS45 KABQ 291910
RWRNM
NEW MEXICO REGIONAL WEATHER ROUNDUP
NATIONAL WEATHER SERVICE ALBUQUERQUE NM
100 PM MDT FRI APR 29 2016

NOTE: "FAIR" MEANS FEW OR NO CLOUDS BELOW 12,000 FEET AGL WITH NO
       SIGNIFICANT WEATHER OR OBSTRUCTIONS TO VISION.

      THIS PRODUCT IS RELEASED AS TWO VERSIONS.  ONE VERSION NEAR
      THE TOP OF THE HOUR CONTAINING PRELIMINARY DATA FROM ALBUQUERQUE
      AND OTHER STATIONS.  A FINAL VERSION WITH ADDITIONAL DATA IS
      ISSUED ABOUT 10 MINUTES AFTER THE HOUR.

NMZ501-503-504-510>518-292000-
NORTHWEST PLATEAU/NORTHCENTRAL MOUNTAINS

CITY           SKY/WX    TMP DP  RH WIND       PRES   REMARKS
FARMINGTON     PTSUNNY   57  26  30 W17G24    29.81F
LOS ALAMOS     PTSUNNY   47  24  39 SW5G16    29.86F
SANTA FE       CLOUDY    51  25  36 SW14G22   29.82F
TAOS           CLOUDY    41  27  56 S9        29.84S
ANGEL FIRE     CLOUDY    32  28  85 E7        29.85F WCI  26

$$
NMZ402-403-502-505>509-292000-
WESTCENTRAL MOUNTAINS/SOUTHWEST MOUNTAINS

CITY           SKY/WX    TMP DP  RH WIND       PRES   REMARKS
GALLUP         CLOUDY    48  29  47 W20G25    29.90F
GRANTS         CLOUDY    49  27  41 NW13G22   29.90S
SILVER CITY      N/A     61  25  25 NW24G35   29.92F

$$
NMZ407-409-411-412-292000-
SOUTHERN DESERTS

CITY           SKY/WX    TMP DP  RH WIND       PRES   REMARKS
LORDSBURG      FAIR      64  28  25 W12G25    29.92F
DEMING         FAIR      66  27  23 W23G29    29.89F
LAS CRUCES     FAIR      66  20  17 SW20G30   29.88F
HOLLOMAN AFB   FAIR      66  17  15 S10G18    29.84F
ALAMOGORDO     FAIR      66  14  13 W9G16     29.86F
T OR C         FAIR      65  18  16 S10G25    29.82F

$$
NMZ519>523-292000-
CENTRAL VALLEYS/CENTRAL HIGHLANDS

CITY           SKY/WX    TMP DP  RH WIND       PRES   REMARKS
ALBUQUERQUE    PTSUNNY   54  27  35 SW7       29.83F
DOUBLE EAGLE   PTSUNNY   54  25  32 W10G22    29.84F
MORIARTY ARPT  PTSUNNY   53  22  29 W20G29    29.86S
CLINES CORNERS PTSUNNY   49  21  33 W25G37    29.82F
BELEN          PTSUNNY   58  28  32 W17       29.85F
SOCORRO        CLOUDY    59  22  24 NW8G20    29.85F

$$
NMZ524>526-539-540-292000-
SOUTHCENTRAL MOUNTAINS

CITY           SKY/WX    TMP DP  RH WIND       PRES   REMARKS
RUIDOSO          N/A     55  14  19 W22G31    29.87F

$$
NMZ527>531-292000-
NORTHEAST HIGHLANDS/NORTHEAST PLAINS

CITY           SKY/WX    TMP DP  RH WIND       PRES   REMARKS
LAS VEGAS      FAIR      47  30  51 S8        29.81F
RATON          LGT RAIN  39  32  76 E3        29.83F
CLAYTON        CLOUDY    44  39  82 N13       29.82F

$$
NMZ532>537-292000-
EASTCENTRAL PLAINS

CITY           SKY/WX    TMP DP  RH WIND       PRES   REMARKS
TUCUMCARI      CLOUDY    53  46  77 VRB3      29.80F
CANNON AFB     PTSUNNY   63  37  39 NW31G44   29.77S
CLOVIS AIRPORT PTSUNNY   57  45  62 NE3       29.78F

$$
NMZ028-029-538-292000-
SOUTHEAST PLAINS

CITY           SKY/WX    TMP DP  RH WIND       PRES   REMARKS
ROSWELL        FAIR      74  14  10 NW12G24   29.74S
ARTESIA        FAIR      75  12   9 W9G29     29.74F
CARLSBAD       FAIR      75  14  10 W23G29    29.76F
HOBBS          SUNNY     75  10   8 SW26G38   29.76F


$$



USA.gov is the U.S. government's official web portal to all federal, state and local government web resources and services.